Location: Boquerón
(10.0687°N, 67.9212°W)
Time: 09:33:39
(UTC+00:00)

Cosmos 1515 - Pass Details

Date: 29 May 2024
Orbit: 449 x 457 km, 82.5° (Epoch: 16 June)

Event Time Altitude Azimuth Distance (km) Brightness Sun altitude
Rises 23:05:51 0° 179° (S) 2,468 6.9 -4.6°
Reaches altitude 10° 23:07:56 10° 175° (S) 1,593 5.9 -5.1°
Maximum altitude 23:11:23 63° 94° (E) 510 3.4 -5.9°
Drops below altitude 10° 23:14:48 10° 12° (NNE) 1,585 6.3 -6.6°
Sets 23:16:52 0° 9° (N) 2,455 7.3 -7.1°
